Time,TemperatureF,DewpointF,PressureIn,WindDirection,WindDirectionDegrees,WindSpeedMPH,WindSpeedGustMPH,Humidity,HourlyPrecipIn,Conditions,Clouds,dailyrainin,SoftwareType,DateUTC
2013-01-06 00:00:00,33.4,31.9,29.95,SW,225,2.0,8.0,94,0.00,,---,0.00,VWS V14.01,2013-01-06 05:00:00,
2013-01-06 00:05:00,33.5,32.0,29.95,SW,225,4.0,17.0,94,0.00,,---,0.00,VWS V14.01,2013-01-06 05:05:00,
2013-01-06 00:06:00,33.5,32.0,29.95,SSW,212,7.0,17.0,94,0.00,,,0.00,weatherlink.com 1.10,2013-01-06 05:06:00,
2013-01-06 00:10:00,33.5,32.0,29.95,SW,225,3.0,11.0,94,0.00,,---,0.00,VWS V14.01,2013-01-06 05:10:00,
2013-01-06 00:15:00,33.5,31.7,29.94,SW,225,4.0,14.0,93,0.00,,---,0.00,VWS V14.01,2013-01-06 05:15:00,
2013-01-06 00:20:00,33.6,32.0,29.94,SSW,201,0.0,14.0,94,0.00,,,0.00,weatherlink.com 1.10,2013-01-06 05:20:00,
2013-01-06 00:25:00,33.6,32.1,29.94,SW,225,5.0,11.0,94,0.00,,---,0.00,VWS V14.01,2013-01-06 05:25:00,
2013-01-06 00:30:00,33.6,32.1,29.94,SW,225,3.0,14.0,94,0.00,,---,0.00,VWS V14.01,2013-01-06 05:30:00,
2013-01-06 00:35:00,33.6,32.0,29.94,SE,124,0.0,14.0,94,0.00,,,0.00,weatherlink.com 1.10,2013-01-06 05:35:00,
2013-01-06 00:40:00,33.5,32.0,29.93,SW,225,4.0,14.0,94,0.00,,---,0.00,VWS V14.01,2013-01-06 05:40:00,
2013-01-06 00:45:00,33.6,32.1,29.93,SW,225,4.0,12.0,94,0.00,,---,0.00,VWS V14.01,2013-01-06 05:45:00,
2013-01-06 00:50:00,33.6,32.0,29.93,SW,230,5.0,12.0,94,0.00,,,0.00,weatherlink.com 1.10,2013-01-06 05:50:00,
2013-01-06 00:55:00,33.6,32.1,29.93,SW,225,3.0,13.0,94,0.00,,---,0.00,VWS V14.01,2013-01-06 05:55:00,
2013-01-06 01:00:00,33.6,32.1,29.92,SW,225,3.0,10.0,94,0.00,,---,0.00,VWS V14.01,2013-01-06 06:00:00,
2013-01-06 01:05:00,33.6,32.1,29.92,SW,225,3.0,10.0,94,0.00,,---,0.00,VWS V14.01,2013-01-06 06:05:00,
2013-01-06 01:06:00,33.6,32.0,29.92,SW,230,1.0,10.0,94,0.00,,,0.00,weatherlink.com 1.10,2013-01-06 06:06:00,
2013-01-06 01:10:00,33.5,32.2,29.92,SW,225,2.0,10.0,95,0.00,,---,0.00,VWS V14.01,2013-01-06 06:10:00,
2013-01-06 01:15:00,33.5,32.2,29.92,SW,225,3.0,12.0,95,0.00,,---,0.00,VWS V14.01,2013-01-06 06:15:00,
2013-01-06 01:20:00,33.5,32.2,29.92,SW,225,1.0,6.0,95,0.00,,---,0.00,VWS V14.01,2013-01-06 06:20:00,
2013-01-06 01:21:00,33.5,32.0,29.92,SSW,193,2.0,11.0,95,0.00,,,0.00,weatherlink.com 1.10,2013-01-06 06:21:00,
2013-01-06 01:25:00,33.5,32.2,29.92,SW,225,5.0,11.0,95,0.00,,---,0.00,VWS V14.01,2013-01-06 06:25:00,
2013-01-06 01:30:00,33.6,32.3,29.91,SW,225,3.0,12.0,95,0.00,,---,0.00,VWS V14.01,2013-01-06 06:30:00,
2013-01-06 01:35:00,33.6,32.3,29.92,SW,225,4.0,11.0,95,0.00,,---,0.00,VWS V14.01,2013-01-06 06:35:00,
2013-01-06 01:36:00,33.6,32.0,29.91,SW,214,4.0,12.0,95,0.00,,,0.00,weatherlink.com 1.10,2013-01-06 06:36:00,
2013-01-06 01:40:00,33.6,32.3,29.91,SW,225,4.0,13.0,95,0.00,,---,0.00,VWS V14.01,2013-01-06 06:40:00,
2013-01-06 01:45:00,33.6,32.3,29.91,SW,225,2.0,9.0,95,0.00,,---,0.00,VWS V14.01,2013-01-06 06:45:00,
2013-01-06 01:50:00,33.6,32.3,29.90,SW,225,2.0,10.0,95,0.00,,---,0.00,VWS V14.01,2013-01-06 06:50:00,
2013-01-06 01:51:00,33.6,32.0,29.90,SW,232,1.0,9.0,95,0.00,,,0.00,weatherlink.com 1.10,2013-01-06 06:51:00,
2013-01-06 01:55:00,33.6,32.3,29.90,SW,225,2.0,8.0,95,0.00,,---,0.00,VWS V14.01,2013-01-06 06:55:00,
2013-01-06 02:00:00,33.5,32.2,29.90,SSW,202,2.0,9.0,95,0.00,,---,0.00,VWS V14.01,2013-01-06 07:00:00,
2013-01-06 02:05:00,33.5,32.2,29.90,SW,225,2.0,10.0,95,0.00,,---,0.00,VWS V14.01,2013-01-06 07:05:00,
2013-01-06 02:06:00,33.5,32.0,29.90,SW,217,1.0,9.0,95,0.00,,,0.00,weatherlink.com 1.10,2013-01-06 07:06:00,
2013-01-06 02:10:00,33.5,32.2,29.90,SW,225,3.0,11.0,95,0.00,,---,0.00,VWS V14.01,2013-01-06 07:10:00,
2013-01-06 02:15:00,33.5,32.2,29.90,SW,225,3.0,9.0,95,0.00,,---,0.00,VWS V14.01,2013-01-06 07:15:00,
2013-01-06 02:20:00,33.5,32.2,29.90,SW,225,3.0,11.0,95,0.00,,---,0.00,VWS V14.01,2013-01-06 07:20:00,
2013-01-06 02:21:00,33.5,32.0,29.90,WSW,238,7.0,11.0,95,0.00,,,0.00,weatherlink.com 1.10,2013-01-06 07:21:00,
2013-01-06 02:25:00,33.5,32.2,29.90,SW,225,2.0,9.0,95,0.00,,---,0.00,VWS V14.01,2013-01-06 07:25:00,
2013-01-06 02:30:00,33.5,32.2,29.90,SW,225,2.0,6.0,95,0.00,,---,0.00,VWS V14.01,2013-01-06 07:30:00,
2013-01-06 02:35:00,33.5,32.2,29.90,SW,225,3.0,8.0,95,0.00,,---,0.00,VWS V14.01,2013-01-06 07:35:00,
2013-01-06 02:36:00,33.5,32.0,29.90,SSW,207,1.0,6.0,95,0.00,,,0.00,weatherlink.com 1.10,2013-01-06 07:36:00,
2013-01-06 02:40:00,33.4,32.1,29.90,SW,225,2.0,7.0,95,0.00,,---,0.00,VWS V14.01,2013-01-06 07:40:00,
2013-01-06 02:45:00,33.4,32.4,29.90,SW,225,2.0,7.0,96,0.00,,---,0.00,VWS V14.01,2013-01-06 07:45:00,
2013-01-06 02:50:00,33.4,32.4,29.90,SW,225,2.0,8.0,96,0.00,,---,0.00,VWS V14.01,2013-01-06 07:50:00,
2013-01-06 02:51:00,33.5,33.0,29.90,SSE,159,0.0,8.0,96,0.00,,,0.00,weatherlink.com 1.10,2013-01-06 07:51:00,
2013-01-06 02:55:00,33.5,32.5,29.90,SW,225,3.0,9.0,96,0.00,,---,0.00,VWS V14.01,2013-01-06 07:55:00,
2013-01-06 03:00:00,33.6,32.6,29.90,SW,225,3.0,9.0,96,0.00,,---,0.00,VWS V14.01,2013-01-06 08:00:00,
2013-01-06 03:05:00,33.7,32.4,29.90,SW,225,3.0,9.0,95,0.00,,---,0.00,VWS V14.01,2013-01-06 08:05:00,
2013-01-06 03:06:00,33.7,33.0,29.90,SW,228,2.0,9.0,96,0.00,,,0.00,weatherlink.com 1.10,2013-01-06 08:06:00,
2013-01-06 03:10:00,33.8,32.5,29.90,SW,225,2.0,9.0,95,0.00,,---,0.00,VWS V14.01,2013-01-06 08:10:00,
2013-01-06 03:15:00,33.8,32.5,29.90,SW,225,2.0,9.0,95,0.00,,---,0.00,VWS V14.01,2013-01-06 08:15:00,
2013-01-06 03:20:00,33.8,32.5,29.90,SW,225,2.0,8.0,95,0.00,,---,0.00,VWS V14.01,2013-01-06 08:20:00,
2013-01-06 03:21:00,33.8,33.0,29.90,SW,222,7.0,8.0,95,0.00,,,0.00,weatherlink.com 1.10,2013-01-06 08:21:00,
2013-01-06 03:25:00,33.8,32.5,29.89,SW,225,2.0,5.0,95,0.00,,---,0.00,VWS V14.01,2013-01-06 08:25:00,
2013-01-06 03:30:00,33.9,32.6,29.89,SW,225,1.0,8.0,95,0.00,,---,0.00,VWS V14.01,2013-01-06 08:30:00,
2013-01-06 03:35:00,33.9,32.6,29.89,SW,225,1.0,3.0,95,0.00,,---,0.00,VWS V14.01,2013-01-06 08:35:00,
2013-01-06 03:36:00,33.8,33.0,29.89,SW,221,0.0,8.0,95,0.00,,,0.00,weatherlink.com 1.10,2013-01-06 08:36:00,
2013-01-06 03:40:00,33.8,32.5,29.89,SW,225,1.0,5.0,95,0.00,,---,0.00,VWS V14.01,2013-01-06 08:40:00,
2013-01-06 03:45:00,33.8,32.5,29.89,SW,225,1.0,4.0,95,0.00,,---,0.00,VWS V14.01,2013-01-06 08:45:00,
2013-01-06 03:50:00,33.7,32.7,29.88,SW,225,1.0,6.0,96,0.01,,---,0.01,VWS V14.01,2013-01-06 08:50:00,
2013-01-06 03:51:00,33.7,33.0,29.88,SW,214,6.0,6.0,96,0.01,,,0.01,weatherlink.com 1.10,2013-01-06 08:51:00,
2013-01-06 03:55:00,33.7,32.7,29.89,SW,225,1.0,9.0,96,0.01,,---,0.01,VWS V14.01,2013-01-06 08:55:00,
2013-01-06 04:00:00,33.7,32.7,29.89,SW,225,2.0,6.0,96,0.01,,---,0.01,VWS V14.01,2013-01-06 09:00:00,
2013-01-06 04:05:00,33.7,32.7,29.88,SW,225,2.0,9.0,96,0.01,,---,0.01,VWS V14.01,2013-01-06 09:05:00,
2013-01-06 04:06:00,33.7,33.0,29.88,South,178,1.0,8.0,96,0.01,,,0.01,weatherlink.com 1.10,2013-01-06 09:06:00,
2013-01-06 04:10:00,33.7,32.7,29.88,SSW,202,1.0,6.0,96,0.01,,---,0.01,VWS V14.01,2013-01-06 09:10:00,
2013-01-06 04:15:00,33.7,32.7,29.88,SW,225,1.0,5.0,96,0.01,,---,0.01,VWS V14.01,2013-01-06 09:15:00,
2013-01-06 04:20:00,33.7,32.7,29.88,SW,225,2.0,6.0,96,0.01,,---,0.01,VWS V14.01,2013-01-06 09:20:00,
2013-01-06 04:21:00,33.7,33.0,29.88,SW,229,2.0,6.0,96,0.01,,,0.01,weatherlink.com 1.10,2013-01-06 09:21:00,
2013-01-06 04:25:00,33.7,32.7,29.88,SW,225,1.0,7.0,96,0.01,,---,0.01,VWS V14.01,2013-01-06 09:25:00,
2013-01-06 04:30:00,33.7,32.7,29.88,SW,225,2.0,8.0,96,0.02,,---,0.02,VWS V14.01,2013-01-06 09:30:00,
2013-01-06 04:35:00,33.7,32.7,29.87,SW,225,2.0,11.0,96,0.02,,---,0.02,VWS V14.01,2013-01-06 09:35:00,
2013-01-06 04:36:00,33.8,33.0,29.87,SW,233,11.0,11.0,96,0.02,,,0.02,weatherlink.com 1.10,2013-01-06 09:36:00,
2013-01-06 04:40:00,33.8,32.8,29.87,SW,225,1.0,10.0,96,0.02,,---,0.02,VWS V14.01,2013-01-06 09:40:00,
2013-01-06 04:45:00,33.8,32.8,29.87,SW,225,2.0,8.0,96,0.02,,---,0.02,VWS V14.01,2013-01-06 09:45:00,
2013-01-06 04:50:00,33.9,32.9,29.87,SW,225,2.0,8.0,96,0.02,,---,0.02,VWS V14.01,2013-01-06 09:50:00,
2013-01-06 04:51:00,33.9,33.0,29.87,SW,221,0.0,8.0,96,0.01,,,0.02,weatherlink.com 1.10,2013-01-06 09:51:00,
2013-01-06 04:55:00,33.9,32.9,29.87,SW,225,2.0,11.0,96,0.01,,---,0.02,VWS V14.01,2013-01-06 09:55:00,
2013-01-06 05:00:00,34.0,33.0,29.87,SW,225,1.0,6.0,96,0.01,,---,0.02,VWS V14.01,2013-01-06 10:00:00,
2013-01-06 05:05:00,34.0,33.0,29.86,SW,225,2.0,7.0,96,0.01,,---,0.02,VWS V14.01,2013-01-06 10:05:00,
2013-01-06 05:06:00,34.0,33.0,29.86,SW,228,1.0,6.0,96,0.01,,,0.02,weatherlink.com 1.10,2013-01-06 10:06:00,
2013-01-06 05:10:00,34.0,32.7,29.86,SW,225,1.0,4.0,95,0.01,,---,0.02,VWS V14.01,2013-01-06 10:10:00,
2013-01-06 05:15:00,34.0,32.7,29.86,SW,225,2.0,9.0,95,0.01,,---,0.02,VWS V14.01,2013-01-06 10:15:00,
2013-01-06 05:20:00,34.0,32.7,29.85,SW,225,1.0,4.0,95,0.01,,---,0.02,VWS V14.01,2013-01-06 10:20:00,
2013-01-06 05:21:00,34.0,33.0,29.86,SW,224,0.0,5.0,95,0.01,,,0.02,weatherlink.com 1.10,2013-01-06 10:21:00,
2013-01-06 05:25:00,34.0,32.7,29.85,SW,225,1.0,4.0,95,0.01,,---,0.02,VWS V14.01,2013-01-06 10:25:00,
2013-01-06 05:30:00,34.0,32.7,29.85,SW,225,3.0,9.0,95,0.01,,---,0.02,VWS V14.01,2013-01-06 10:30:00,
2013-01-06 05:35:00,34.0,32.7,29.85,SSW,202,0.0,2.0,95,0.01,,---,0.03,VWS V14.01,2013-01-06 10:35:00,
2013-01-06 05:36:00,34.0,33.0,29.85,SSW,193,1.0,8.0,95,0.01,,,0.03,weatherlink.com 1.10,2013-01-06 10:36:00,
2013-01-06 05:40:00,33.9,32.6,29.85,SW,225,1.0,11.0,95,0.01,,---,0.03,VWS V14.01,2013-01-06 10:40:00,
2013-01-06 05:45:00,33.9,32.6,29.85,SW,225,1.0,7.0,95,0.01,,---,0.03,VWS V14.01,2013-01-06 10:45:00,
2013-01-06 05:50:00,33.9,32.6,29.85,SW,225,1.0,3.0,95,0.01,,---,0.03,VWS V14.01,2013-01-06 10:50:00,
2013-01-06 05:51:00,33.9,33.0,29.85,SW,228,0.0,7.0,95,0.01,,,0.03,weatherlink.com 1.10,2013-01-06 10:51:00,
2013-01-06 05:55:00,33.9,32.6,29.85,SW,225,1.0,6.0,95,0.01,,---,0.03,VWS V14.01,2013-01-06 10:55:00,
2013-01-06 06:00:00,33.9,32.6,29.85,SW,225,1.0,4.0,95,0.01,,---,0.03,VWS V14.01,2013-01-06 11:00:00,
2013-01-06 06:05:00,33.9,32.6,29.85,SW,225,1.0,3.0,95,0.01,,---,0.03,VWS V14.01,2013-01-06 11:05:00,
2013-01-06 06:06:00,33.9,33.0,29.85,WSW,238,1.0,4.0,95,0.01,,,0.03,weatherlink.com 1.10,2013-01-06 11:06:00,
2013-01-06 06:10:00,33.9,32.6,29.85,SW,225,2.0,7.0,95,0.01,,---,0.03,VWS V14.01,2013-01-06 11:10:00,
2013-01-06 06:15:00,33.9,32.6,29.85,SW,225,1.0,5.0,95,0.01,,---,0.03,VWS V14.01,2013-01-06 11:15:00,
2013-01-06 06:20:00,34.0,32.7,29.85,SW,225,1.0,6.0,95,0.01,,---,0.03,VWS V14.01,2013-01-06 11:20:00,
2013-01-06 06:21:00,34.0,33.0,29.85,SSW,193,0.0,6.0,95,0.01,,,0.03,weatherlink.com 1.10,2013-01-06 11:21:00,
2013-01-06 06:25:00,34.0,32.7,29.85,SW,225,2.0,8.0,95,0.01,,---,0.03,VWS V14.01,2013-01-06 11:25:00,
2013-01-06 06:30:00,34.1,32.8,29.85,SW,225,1.0,5.0,95,0.01,,---,0.03,VWS V14.01,2013-01-06 11:30:00,
2013-01-06 06:35:00,34.1,32.8,29.85,SW,225,3.0,11.0,95,0.01,,---,0.03,VWS V14.01,2013-01-06 11:35:00,
2013-01-06 06:36:00,34.1,33.0,29.85,SW,224,3.0,10.0,95,0.00,,,0.03,weatherlink.com 1.10,2013-01-06 11:36:00,
2013-01-06 06:40:00,34.2,32.7,29.85,SW,225,3.0,7.0,94,0.00,,---,0.03,VWS V14.01,2013-01-06 11:40:00,
2013-01-06 06:45:00,34.3,32.8,29.85,SW,225,2.0,9.0,94,0.00,,---,0.03,VWS V14.01,2013-01-06 11:45:00,
2013-01-06 06:50:00,34.3,32.8,29.85,SW,225,1.0,10.0,94,0.00,,---,0.03,VWS V14.01,2013-01-06 11:50:00,
2013-01-06 06:51:00,34.3,33.0,29.85,WSW,242,1.0,9.0,94,0.00,,,0.03,weatherlink.com 1.10,2013-01-06 11:51:00,
2013-01-06 06:55:00,34.3,32.8,29.85,SW,225,1.0,7.0,94,0.00,,---,0.03,VWS V14.01,2013-01-06 11:55:00,
2013-01-06 07:00:00,34.3,32.8,29.85,SW,225,1.0,6.0,94,0.00,,---,0.03,VWS V14.01,2013-01-06 12:00:00,
2013-01-06 07:05:00,34.3,32.8,29.85,SW,225,1.0,5.0,94,0.00,,---,0.03,VWS V14.01,2013-01-06 12:05:00,
2013-01-06 07:06:00,34.3,33.0,29.85,SW,217,2.0,6.0,94,0.00,,,0.03,weatherlink.com 1.10,2013-01-06 12:06:00,
2013-01-06 07:10:00,34.3,32.8,29.85,SW,225,2.0,5.0,94,0.00,,---,0.03,VWS V14.01,2013-01-06 12:10:00,
2013-01-06 07:15:00,34.3,32.8,29.85,SW,225,3.0,7.0,94,0.01,,---,0.04,VWS V14.01,2013-01-06 12:15:00,
2013-01-06 07:20:00,34.4,32.9,29.85,SW,225,2.0,8.0,94,0.01,,---,0.04,VWS V14.01,2013-01-06 12:20:00,
2013-01-06 07:21:00,34.4,33.0,29.85,SW,225,0.0,8.0,94,0.01,,,0.04,weatherlink.com 1.10,2013-01-06 12:21:00,
2013-01-06 07:25:00,34.5,33.0,29.85,SW,225,3.0,8.0,94,0.01,,---,0.04,VWS V14.01,2013-01-06 12:25:00,
2013-01-06 07:30:00,34.5,33.0,29.85,SW,225,1.0,7.0,94,0.01,,---,0.04,VWS V14.01,2013-01-06 12:30:00,
2013-01-06 07:35:00,34.4,32.9,29.85,SW,225,2.0,8.0,94,0.01,,---,0.04,VWS V14.01,2013-01-06 12:35:00,
2013-01-06 07:36:00,34.4,33.0,29.85,SW,232,4.0,7.0,94,0.01,,,0.04,weatherlink.com 1.10,2013-01-06 12:36:00,
2013-01-06 07:40:00,34.4,32.9,29.85,SW,225,2.0,5.0,94,0.01,,---,0.04,VWS V14.01,2013-01-06 12:40:00,
2013-01-06 07:45:00,34.4,32.9,29.85,SW,225,3.0,7.0,94,0.01,,---,0.04,VWS V14.01,2013-01-06 12:45:00,
2013-01-06 07:50:00,34.3,32.8,29.86,SW,225,1.0,5.0,94,0.01,,---,0.04,VWS V14.01,2013-01-06 12:50:00,
2013-01-06 07:51:00,34.3,33.0,29.86,SW,222,2.0,6.0,94,0.01,,,0.04,weatherlink.com 1.10,2013-01-06 12:51:00,
2013-01-06 07:55:00,34.3,32.8,29.86,SW,225,2.0,7.0,94,0.01,,---,0.04,VWS V14.01,2013-01-06 12:55:00,
2013-01-06 08:00:00,34.3,32.8,29.86,SW,225,3.0,8.0,94,0.01,,---,0.04,VWS V14.01,2013-01-06 13:00:00,
2013-01-06 08:05:00,34.3,32.8,29.86,SW,225,1.0,6.0,94,0.01,,---,0.04,VWS V14.01,2013-01-06 13:05:00,
2013-01-06 08:06:00,34.2,33.0,29.86,SW,222,1.0,7.0,94,0.01,,,0.04,weatherlink.com 1.10,2013-01-06 13:06:00,
2013-01-06 08:10:00,34.2,32.7,29.86,SW,225,1.0,7.0,94,0.01,,---,0.04,VWS V14.01,2013-01-06 13:10:00,
2013-01-06 08:15:00,34.1,32.6,29.86,SW,225,2.0,5.0,94,0.01,,---,0.04,VWS V14.01,2013-01-06 13:15:00,
2013-01-06 08:20:00,34.1,32.8,29.86,SW,225,1.0,4.0,95,0.00,,---,0.04,VWS V14.01,2013-01-06 13:20:00,
2013-01-06 08:21:00,34.0,33.0,29.86,SW,222,3.0,4.0,95,0.00,,,0.04,weatherlink.com 1.10,2013-01-06 13:21:00,
2013-01-06 08:25:00,34.0,32.7,29.86,SW,225,3.0,6.0,95,0.00,,---,0.04,VWS V14.01,2013-01-06 13:25:00,
2013-01-06 08:30:00,34.0,32.7,29.86,SW,225,3.0,7.0,95,0.00,,---,0.04,VWS V14.01,2013-01-06 13:30:00,
2013-01-06 08:35:00,34.0,32.7,29.86,SW,225,2.0,6.0,95,0.00,,---,0.04,VWS V14.01,2013-01-06 13:35:00,
2013-01-06 08:36:00,34.0,33.0,29.86,SW,229,4.0,6.0,95,0.00,,,0.04,weatherlink.com 1.10,2013-01-06 13:36:00,
2013-01-06 08:40:00,34.0,32.7,29.87,SW,225,3.0,7.0,95,0.00,,---,0.04,VWS V14.01,2013-01-06 13:40:00,
2013-01-06 08:45:00,34.0,32.7,29.87,SW,225,2.0,7.0,95,0.00,,---,0.04,VWS V14.01,2013-01-06 13:45:00,
2013-01-06 08:50:00,34.0,32.7,29.87,SW,225,2.0,5.0,95,0.00,,---,0.04,VWS V14.01,2013-01-06 13:50:00,
2013-01-06 08:51:00,34.0,33.0,29.87,WSW,240,2.0,6.0,95,0.00,,,0.04,weatherlink.com 1.10,2013-01-06 13:51:00,
2013-01-06 08:55:00,33.9,32.6,29.87,SW,225,2.0,6.0,95,0.00,,---,0.04,VWS V14.01,2013-01-06 13:55:00,
2013-01-06 09:00:00,33.9,32.6,29.87,SW,225,2.0,6.0,95,0.00,,---,0.04,VWS V14.01,2013-01-06 14:00:00,
2013-01-06 09:05:00,33.8,32.5,29.87,SW,225,1.0,4.0,95,0.00,,---,0.04,VWS V14.01,2013-01-06 14:05:00,
2013-01-06 09:06:00,33.7,33.0,29.87,SW,234,2.0,5.0,95,0.00,,,0.04,weatherlink.com 1.10,2013-01-06 14:06:00,
2013-01-06 09:10:00,33.7,32.4,29.88,SW,225,1.0,4.0,95,0.00,,---,0.04,VWS V14.01,2013-01-06 14:10:00,
2013-01-06 09:15:00,33.7,32.7,29.87,SW,225,1.0,3.0,96,0.00,,---,0.04,VWS V14.01,2013-01-06 14:15:00,
2013-01-06 09:20:00,33.7,32.7,29.88,SW,225,1.0,4.0,96,0.00,,---,0.04,VWS V14.01,2013-01-06 14:20:00,
2013-01-06 09:21:00,33.6,33.0,29.88,WSW,239,0.0,3.0,96,0.00,,,0.04,weatherlink.com 1.10,2013-01-06 14:21:00,
2013-01-06 09:25:00,33.6,32.6,29.88,SW,225,1.0,2.0,96,0.00,,---,0.04,VWS V14.01,2013-01-06 14:25:00,
2013-01-06 09:30:00,33.6,32.6,29.88,SW,225,2.0,6.0,96,0.01,,---,0.05,VWS V14.01,2013-01-06 14:30:00,
2013-01-06 09:35:00,33.7,32.7,29.88,SW,225,2.0,4.0,96,0.01,,---,0.05,VWS V14.01,2013-01-06 14:35:00,
2013-01-06 09:36:00,33.7,33.0,29.88,SW,234,2.0,5.0,96,0.01,,,0.05,weatherlink.com 1.10,2013-01-06 14:36:00,
2013-01-06 09:40:00,33.7,32.7,29.88,SW,225,2.0,5.0,96,0.01,,---,0.05,VWS V14.01,2013-01-06 14:40:00,
2013-01-06 09:45:00,33.8,32.8,29.88,WSW,248,2.0,7.0,96,0.01,,---,0.05,VWS V14.01,2013-01-06 14:45:00,
2013-01-06 09:50:00,33.8,32.5,29.88,SW,225,2.0,8.0,95,0.01,,---,0.05,VWS V14.01,2013-01-06 14:50:00,
2013-01-06 09:51:00,33.8,33.0,29.88,SW,218,2.0,8.0,95,0.01,,,0.05,weatherlink.com 1.10,2013-01-06 14:51:00,
2013-01-06 09:55:00,33.8,32.5,29.89,West,270,1.0,3.0,95,0.01,,---,0.05,VWS V14.01,2013-01-06 14:55:00,
2013-01-06 10:00:00,33.8,32.3,29.89,WSW,248,1.0,5.0,94,0.01,,---,0.05,VWS V14.01,2013-01-06 15:00:00,
2013-01-06 10:05:00,33.8,32.3,29.89,West,270,1.0,4.0,94,0.01,,---,0.05,VWS V14.01,2013-01-06 15:05:00,
2013-01-06 10:06:00,33.8,32.0,29.89,SW,217,0.0,4.0,94,0.01,,,0.05,weatherlink.com 1.10,2013-01-06 15:06:00,
2013-01-06 10:10:00,33.8,32.3,29.90,West,270,1.0,5.0,94,0.01,,---,0.05,VWS V14.01,2013-01-06 15:10:00,
2013-01-06 10:15:00,33.8,32.0,29.90,West,270,1.0,7.0,93,0.02,,---,0.06,VWS V14.01,2013-01-06 15:15:00,
2013-01-06 10:20:00,33.7,31.9,29.90,WNW,292,2.0,5.0,93,0.02,,---,0.06,VWS V14.01,2013-01-06 15:20:00,
2013-01-06 10:21:00,33.7,32.0,29.90,NW,310,1.0,6.0,93,0.02,,,0.06,weatherlink.com 1.10,2013-01-06 15:21:00,
2013-01-06 10:25:00,33.7,31.9,29.90,WSW,248,1.0,6.0,93,0.02,,---,0.06,VWS V14.01,2013-01-06 15:25:00,
2013-01-06 10:30:00,33.7,31.6,29.90,WNW,292,3.0,7.0,92,0.02,,---,0.06,VWS V14.01,2013-01-06 15:30:00,
2013-01-06 10:35:00,33.6,31.3,29.91,NW,315,2.0,6.0,91,0.01,,---,0.06,VWS V14.01,2013-01-06 15:35:00,
2013-01-06 10:36:00,33.6,31.0,29.91,West,281,1.0,7.0,91,0.01,,,0.06,weatherlink.com 1.10,2013-01-06 15:36:00,
2013-01-06 10:40:00,33.6,31.3,29.91,NW,315,2.0,5.0,91,0.01,,---,0.06,VWS V14.01,2013-01-06 15:40:00,
2013-01-06 10:45:00,33.5,31.4,29.91,WNW,292,1.0,5.0,92,0.01,,---,0.06,VWS V14.01,2013-01-06 15:45:00,
2013-01-06 10:50:00,33.4,31.3,29.92,WNW,292,2.0,4.0,92,0.01,,---,0.06,VWS V14.01,2013-01-06 15:50:00,
2013-01-06 10:51:00,33.4,31.0,29.92,NW,310,3.0,5.0,92,0.01,,,0.06,weatherlink.com 1.10,2013-01-06 15:51:00,
2013-01-06 10:55:00,33.3,31.2,29.92,NW,315,1.0,4.0,92,0.01,,---,0.06,VWS V14.01,2013-01-06 15:55:00,
2013-01-06 11:00:00,33.3,31.0,29.92,WNW,292,3.0,8.0,91,0.01,,---,0.06,VWS V14.01,2013-01-06 16:00:00,
2013-01-06 11:05:00,33.1,30.8,29.92,WNW,292,3.0,8.0,91,0.01,,---,0.06,VWS V14.01,2013-01-06 16:05:00,
2013-01-06 11:06:00,33.0,31.0,29.93,NW,315,2.0,8.0,91,0.01,,,0.06,weatherlink.com 1.10,2013-01-06 16:06:00,
2013-01-06 11:10:00,33.0,30.7,29.93,WNW,292,3.0,10.0,91,0.01,,---,0.06,VWS V14.01,2013-01-06 16:10:00,
2013-01-06 11:15:00,32.9,30.3,29.93,WNW,292,2.0,7.0,90,0.01,,---,0.06,VWS V14.01,2013-01-06 16:15:00,
2013-01-06 11:20:00,32.7,29.8,29.93,WNW,292,4.0,10.0,89,0.00,,---,0.06,VWS V14.01,2013-01-06 16:20:00,
2013-01-06 11:22:00,32.6,30.0,29.93,NW,314,8.0,11.0,88,0.00,,,0.06,weatherlink.com 1.10,2013-01-06 16:22:00,
2013-01-06 11:25:00,32.6,29.2,29.93,WNW,292,4.0,11.0,87,0.00,,---,0.06,VWS V14.01,2013-01-06 16:25:00,
2013-01-06 11:30:00,32.5,29.1,29.93,NW,315,3.0,8.0,87,0.00,,---,0.06,VWS V14.01,2013-01-06 16:30:00,
2013-01-06 11:35:00,32.5,29.1,29.93,WNW,292,2.0,6.0,87,0.00,,---,0.06,VWS V14.01,2013-01-06 16:35:00,
2013-01-06 11:37:00,32.5,29.0,29.93,WSW,243,1.0,8.0,87,0.00,,,0.06,weatherlink.com 1.10,2013-01-06 16:37:00,
2013-01-06 11:40:00,32.5,29.1,29.93,WSW,248,3.0,10.0,87,0.00,,---,0.06,VWS V14.01,2013-01-06 16:40:00,
2013-01-06 11:45:00,32.7,29.3,29.93,West,270,1.0,3.0,87,0.00,,---,0.06,VWS V14.01,2013-01-06 16:45:00,
2013-01-06 11:50:00,32.8,29.4,29.93,WNW,292,2.0,4.0,87,0.00,,---,0.06,VWS V14.01,2013-01-06 16:50:00,
2013-01-06 11:52:00,32.8,29.0,29.93,SW,231,1.0,4.0,87,0.00,,,0.06,weatherlink.com 1.10,2013-01-06 16:52:00,
2013-01-06 11:55:00,32.9,29.5,29.93,WNW,292,2.0,6.0,87,0.00,,---,0.06,VWS V14.01,2013-01-06 16:55:00,
2013-01-06 12:00:00,32.9,28.9,29.93,WSW,248,4.0,9.0,85,0.00,,---,0.06,VWS V14.01,2013-01-06 17:00:00,
2013-01-06 12:05:00,32.8,28.8,29.93,WNW,292,5.0,9.0,85,0.00,,---,0.06,VWS V14.01,2013-01-06 17:05:00,
2013-01-06 12:07:00,32.7,29.0,29.93,NW,318,4.0,10.0,85,0.00,,,0.06,weatherlink.com 1.10,2013-01-06 17:07:00,
2013-01-06 12:10:00,32.7,28.7,29.93,WSW,248,3.0,10.0,85,0.00,,---,0.06,VWS V14.01,2013-01-06 17:10:00,
2013-01-06 12:15:00,32.6,28.6,29.93,West,270,2.0,6.0,85,0.00,,---,0.06,VWS V14.01,2013-01-06 17:15:00,
2013-01-06 12:20:00,32.6,28.3,29.93,WNW,292,4.0,9.0,84,0.00,,---,0.06,VWS V14.01,2013-01-06 17:20:00,
2013-01-06 12:22:00,32.6,28.0,29.93,WSW,238,5.0,9.0,84,0.00,,,0.06,weatherlink.com 1.10,2013-01-06 17:22:00,
2013-01-06 12:25:00,32.5,27.9,29.93,West,270,4.0,10.0,83,0.00,,---,0.06,VWS V14.01,2013-01-06 17:25:00,
2013-01-06 12:30:00,32.7,28.1,29.93,WNW,292,2.0,8.0,83,0.00,,---,0.06,VWS V14.01,2013-01-06 17:30:00,
2013-01-06 12:35:00,33.0,28.1,29.94,WNW,292,3.0,6.0,82,0.00,,---,0.06,VWS V14.01,2013-01-06 17:35:00,
2013-01-06 12:37:00,33.0,28.0,29.94,NNW,335,3.0,6.0,82,0.00,,,0.06,weatherlink.com 1.10,2013-01-06 17:37:00,
2013-01-06 12:40:00,32.9,28.0,29.94,NW,315,3.0,9.0,82,0.00,,---,0.06,VWS V14.01,2013-01-06 17:40:00,
2013-01-06 12:45:00,32.7,27.8,29.94,NW,315,3.0,8.0,82,0.00,,---,0.06,VWS V14.01,2013-01-06 17:45:00,
2013-01-06 12:50:00,32.7,28.1,29.94,West,270,1.0,5.0,83,0.00,,---,0.06,VWS V14.01,2013-01-06 17:50:00,
2013-01-06 12:52:00,32.7,28.0,29.94,WNW,296,2.0,8.0,83,0.00,,,0.06,weatherlink.com 1.10,2013-01-06 17:52:00,
2013-01-06 12:55:00,32.7,28.1,29.93,WNW,292,2.0,6.0,83,0.00,,---,0.06,VWS V14.01,2013-01-06 17:55:00,
2013-01-06 13:00:00,32.8,28.2,29.93,NW,315,1.0,3.0,83,0.00,,---,0.06,VWS V14.01,2013-01-06 18:00:00,
2013-01-06 13:05:00,32.8,27.9,29.94,West,270,2.0,8.0,82,0.00,,---,0.06,VWS V14.01,2013-01-06 18:05:00,
2013-01-06 13:07:00,32.8,28.0,29.94,South,180,5.0,7.0,82,0.00,,,0.06,weatherlink.com 1.10,2013-01-06 18:07:00,
2013-01-06 13:10:00,32.8,28.2,29.94,SSW,202,2.0,7.0,83,0.00,,---,0.06,VWS V14.01,2013-01-06 18:10:00,
2013-01-06 13:15:00,32.8,28.2,29.94,NW,315,2.0,8.0,83,0.00,,---,0.06,VWS V14.01,2013-01-06 18:15:00,
2013-01-06 13:20:00,32.9,28.3,29.94,West,270,2.0,6.0,83,0.00,,---,0.06,VWS V14.01,2013-01-06 18:20:00,
2013-01-06 13:22:00,32.9,28.0,29.94,SSW,208,0.0,8.0,83,0.00,,,0.06,weatherlink.com 1.10,2013-01-06 18:22:00,
2013-01-06 13:25:00,32.9,28.3,29.94,SW,225,2.0,8.0,83,0.00,,---,0.06,VWS V14.01,2013-01-06 18:25:00,
2013-01-06 13:30:00,32.8,28.5,29.94,WSW,248,3.0,8.0,84,0.00,,---,0.06,VWS V14.01,2013-01-06 18:30:00,
2013-01-06 13:35:00,32.7,28.4,29.94,WSW,248,3.0,9.0,84,0.00,,---,0.06,VWS V14.01,2013-01-06 18:35:00,
2013-01-06 13:37:00,32.7,28.0,29.94,SW,214,3.0,9.0,84,0.00,,,0.06,weatherlink.com 1.10,2013-01-06 18:37:00,
2013-01-06 13:40:00,32.6,28.6,29.94,WSW,248,2.0,8.0,85,0.00,,---,0.06,VWS V14.01,2013-01-06 18:40:00,
2013-01-06 13:45:00,32.6,28.9,29.94,SW,225,2.0,4.0,86,0.00,,---,0.06,VWS V14.01,2013-01-06 18:45:00,
2013-01-06 13:50:00,32.6,28.9,29.95,WSW,248,2.0,7.0,86,0.00,,---,0.06,VWS V14.01,2013-01-06 18:50:00,
2013-01-06 13:52:00,32.6,29.0,29.95,WNW,295,3.0,7.0,86,0.00,,,0.06,weatherlink.com 1.10,2013-01-06 18:52:00,
2013-01-06 13:55:00,32.7,29.0,29.95,NW,315,2.0,7.0,86,0.00,,---,0.06,VWS V14.01,2013-01-06 18:55:00,
2013-01-06 14:00:00,32.8,29.1,29.95,WSW,248,2.0,6.0,86,0.00,,---,0.06,VWS V14.01,2013-01-06 19:00:00,
2013-01-06 14:05:00,33.0,29.3,29.95,SW,225,1.0,7.0,86,0.00,,---,0.06,VWS V14.01,2013-01-06 19:05:00,
2013-01-06 14:07:00,33.1,29.0,29.95,SW,219,2.0,7.0,86,0.00,,,0.06,weatherlink.com 1.10,2013-01-06 19:07:00,
2013-01-06 14:10:00,33.2,29.2,29.95,SW,225,2.0,6.0,85,0.00,,---,0.06,VWS V14.01,2013-01-06 19:10:00,
2013-01-06 14:15:00,33.4,29.4,29.95,WNW,292,1.0,6.0,85,0.00,,---,0.06,VWS V14.01,2013-01-06 19:15:00,
2013-01-06 14:20:00,33.5,29.5,29.96,WNW,292,2.0,6.0,85,0.00,,---,0.06,VWS V14.01,2013-01-06 19:20:00,
2013-01-06 14:22:00,33.5,30.0,29.96,SSE,149,0.0,6.0,85,0.00,,,0.06,weatherlink.com 1.10,2013-01-06 19:22:00,
2013-01-06 14:25:00,33.5,29.5,29.96,WSW,248,2.0,6.0,85,0.00,,---,0.06,VWS V14.01,2013-01-06 19:25:00,
2013-01-06 14:30:00,33.4,29.4,29.96,NW,315,3.0,7.0,85,0.00,,---,0.06,VWS V14.01,2013-01-06 19:30:00,
2013-01-06 14:35:00,33.3,29.6,29.96,NW,315,3.0,7.0,86,0.00,,---,0.06,VWS V14.01,2013-01-06 19:35:00,
2013-01-06 14:37:00,33.2,30.0,29.96,WNW,292,5.0,7.0,86,0.00,,,0.06,weatherlink.com 1.10,2013-01-06 19:37:00,
2013-01-06 14:40:00,33.2,29.5,29.97,West,270,2.0,9.0,86,0.00,,---,0.06,VWS V14.01,2013-01-06 19:40:00,
2013-01-06 14:45:00,33.2,29.5,29.97,SW,225,2.0,6.0,86,0.00,,---,0.06,VWS V14.01,2013-01-06 19:45:00,
2013-01-06 14:50:00,33.2,29.5,29.97,West,270,2.0,6.0,86,0.00,,---,0.06,VWS V14.01,2013-01-06 19:50:00,
2013-01-06 14:55:00,33.2,29.5,29.98,SW,225,2.0,4.0,86,0.00,,---,0.06,VWS V14.01,2013-01-06 19:55:00,
2013-01-06 15:00:00,33.2,29.8,29.98,WSW,248,1.0,5.0,87,0.00,,---,0.06,VWS V14.01,2013-01-06 20:00:00,
2013-01-06 15:05:00,33.2,29.8,29.98,SW,225,1.0,5.0,87,0.00,,---,0.06,VWS V14.01,2013-01-06 20:05:00,
2013-01-06 15:07:00,33.2,30.0,29.98,West,260,0.0,5.0,87,0.00,,,0.06,weatherlink.com 1.10,2013-01-06 20:07:00,
2013-01-06 15:10:00,33.2,29.8,29.99,West,270,1.0,5.0,87,0.00,,---,0.06,VWS V14.01,2013-01-06 20:10:00,
2013-01-06 15:15:00,33.3,29.9,29.99,WSW,248,1.0,6.0,87,0.00,,---,0.06,VWS V14.01,2013-01-06 20:15:00,
2013-01-06 15:20:00,33.3,29.9,29.99,SW,225,2.0,6.0,87,0.00,,---,0.06,VWS V14.01,2013-01-06 20:20:00,
2013-01-06 15:25:00,33.3,29.9,30.00,WNW,292,2.0,5.0,87,0.00,,---,0.06,VWS V14.01,2013-01-06 20:25:00,
2013-01-06 15:30:00,33.3,29.9,30.00,WNW,292,2.0,7.0,87,0.00,,---,0.06,VWS V14.01,2013-01-06 20:30:00,
2013-01-06 15:35:00,33.4,29.7,30.01,NW,315,2.0,6.0,86,0.00,,---,0.06,VWS V14.01,2013-01-06 20:35:00,
2013-01-06 15:37:00,33.4,30.0,30.01,NNW,328,0.0,7.0,86,0.00,,,0.06,weatherlink.com 1.10,2013-01-06 20:37:00,
2013-01-06 15:40:00,33.4,29.1,30.01,SW,225,2.0,6.0,84,0.00,,---,0.06,VWS V14.01,2013-01-06 20:40:00,
2013-01-06 15:45:00,33.6,29.0,30.01,WNW,292,3.0,8.0,83,0.00,,---,0.06,VWS V14.01,2013-01-06 20:45:00,
2013-01-06 15:50:00,33.7,29.1,30.02,WNW,292,4.0,9.0,83,0.00,,---,0.06,VWS V14.01,2013-01-06 20:50:00,
2013-01-06 15:55:00,33.8,29.2,30.02,WNW,292,3.0,7.0,83,0.00,,---,0.06,VWS V14.01,2013-01-06 20:55:00,
2013-01-06 16:00:00,33.8,29.2,30.03,NW,315,3.0,8.0,83,0.00,,---,0.06,VWS V14.01,2013-01-06 21:00:00,
2013-01-06 16:05:00,33.8,29.2,30.03,NW,315,2.0,4.0,83,0.00,,---,0.06,VWS V14.01,2013-01-06 21:05:00,
2013-01-06 16:07:00,33.7,29.0,30.04,NW,314,2.0,9.0,83,0.00,,,0.06,weatherlink.com 1.10,2013-01-06 21:07:00,
2013-01-06 16:10:00,33.7,29.1,30.04,NW,315,0.0,4.0,83,0.00,,---,0.06,VWS V14.01,2013-01-06 21:10:00,
2013-01-06 16:15:00,33.7,29.4,30.04,NW,315,1.0,5.0,84,0.00,,---,0.06,VWS V14.01,2013-01-06 21:15:00,
2013-01-06 16:20:00,33.7,29.1,30.04,WNW,292,3.0,8.0,83,0.00,,---,0.06,VWS V14.01,2013-01-06 21:20:00,
2013-01-06 16:22:00,33.7,29.0,30.04,WNW,297,8.0,8.0,83,0.00,,,0.06,weatherlink.com 1.10,2013-01-06 21:22:00,
2013-01-06 16:25:00,33.7,29.1,30.05,NW,315,2.0,8.0,83,0.00,,---,0.06,VWS V14.01,2013-01-06 21:25:00,
2013-01-06 16:30:00,33.7,28.8,30.05,NW,315,5.0,10.0,82,0.00,,---,0.06,VWS V14.01,2013-01-06 21:30:00,
2013-01-06 16:35:00,33.7,28.5,30.06,NW,315,4.0,10.0,81,0.00,,---,0.06,VWS V14.01,2013-01-06 21:35:00,
2013-01-06 16:37:00,33.7,28.0,30.06,NW,312,9.0,10.0,81,0.00,,,0.06,weatherlink.com 1.10,2013-01-06 21:37:00,
2013-01-06 16:40:00,33.8,28.6,30.06,NW,315,4.0,12.0,81,0.00,,---,0.06,VWS V14.01,2013-01-06 21:40:00,
2013-01-06 16:45:00,33.7,28.5,30.06,NW,315,3.0,11.0,81,0.00,,---,0.06,VWS V14.01,2013-01-06 21:45:00,
2013-01-06 16:50:00,33.7,28.2,30.07,NW,315,4.0,10.0,80,0.00,,---,0.06,VWS V14.01,2013-01-06 21:50:00,
2013-01-06 16:52:00,33.7,28.0,30.07,NW,309,4.0,9.0,80,0.00,,,0.06,weatherlink.com 1.10,2013-01-06 21:52:00,
2013-01-06 16:55:00,33.7,28.2,30.07,NW,315,4.0,10.0,80,0.00,,---,0.06,VWS V14.01,2013-01-06 21:55:00,
2013-01-06 17:00:00,33.7,28.2,30.07,NW,315,3.0,8.0,80,0.00,,---,0.06,VWS V14.01,2013-01-06 22:00:00,
2013-01-06 17:05:00,33.6,27.8,30.08,NW,315,4.0,10.0,79,0.00,,---,0.06,VWS V14.01,2013-01-06 22:05:00,
2013-01-06 17:07:00,33.6,28.0,30.08,WNW,300,2.0,10.0,79,0.00,,,0.06,weatherlink.com 1.10,2013-01-06 22:07:00,
2013-01-06 17:10:00,33.6,27.8,30.08,NW,315,3.0,8.0,79,0.00,,---,0.06,VWS V14.01,2013-01-06 22:10:00,
2013-01-06 17:15:00,33.6,27.8,30.09,NNW,338,4.0,10.0,79,0.00,,---,0.06,VWS V14.01,2013-01-06 22:15:00,
2013-01-06 17:20:00,33.5,27.7,30.09,NW,315,3.0,7.0,79,0.00,,---,0.06,VWS V14.01,2013-01-06 22:20:00,
2013-01-06 17:22:00,33.5,28.0,30.09,NE,42,5.0,8.0,79,0.00,,,0.06,weatherlink.com 1.10,2013-01-06 22:22:00,
2013-01-06 17:25:00,33.5,27.7,30.09,NW,315,4.0,7.0,79,0.00,,---,0.06,VWS V14.01,2013-01-06 22:25:00,
2013-01-06 17:30:00,33.4,27.6,30.10,North,0,3.0,9.0,79,0.00,,---,0.06,VWS V14.01,2013-01-06 22:30:00,
2013-01-06 17:35:00,33.4,27.6,30.10,NW,315,4.0,10.0,79,0.00,,---,0.06,VWS V14.01,2013-01-06 22:35:00,
2013-01-06 17:38:00,33.4,28.0,30.10,WNW,291,11.0,11.0,79,0.00,,,0.06,weatherlink.com 1.10,2013-01-06 22:38:00,
2013-01-06 17:40:00,33.4,27.6,30.10,NW,315,4.0,11.0,79,0.00,,---,0.06,VWS V14.01,2013-01-06 22:40:00,
2013-01-06 17:45:00,33.3,27.5,30.11,NW,315,3.0,6.0,79,0.00,,---,0.06,VWS V14.01,2013-01-06 22:45:00,
2013-01-06 17:50:00,33.3,27.5,30.11,NW,315,5.0,11.0,79,0.00,,---,0.06,VWS V14.01,2013-01-06 22:50:00,
2013-01-06 17:53:00,33.4,27.0,30.11,NNW,333,5.0,11.0,78,0.00,,,0.06,weatherlink.com 1.10,2013-01-06 22:53:00,
2013-01-06 17:55:00,33.4,27.3,30.12,NNW,338,6.0,11.0,78,0.00,,---,0.06,VWS V14.01,2013-01-06 22:55:00,
2013-01-06 18:00:00,33.4,27.3,30.12,NW,315,4.0,11.0,78,0.00,,---,0.06,VWS V14.01,2013-01-06 23:00:00,
2013-01-06 18:05:00,33.4,27.3,30.12,NNW,338,3.0,7.0,78,0.00,,---,0.06,VWS V14.01,2013-01-06 23:05:00,
2013-01-06 18:08:00,33.4,28.0,30.12,NNW,344,4.0,6.0,79,0.00,,,0.06,weatherlink.com 1.10,2013-01-06 23:08:00,
2013-01-06 18:10:00,33.4,27.3,30.13,NW,315,3.0,8.0,78,0.00,,---,0.06,VWS V14.01,2013-01-06 23:10:00,
2013-01-06 18:15:00,33.3,27.5,30.13,NW,315,3.0,6.0,79,0.00,,---,0.06,VWS V14.01,2013-01-06 23:15:00,
2013-01-06 18:20:00,33.3,27.5,30.14,NW,315,2.0,7.0,79,0.00,,---,0.06,VWS V14.01,2013-01-06 23:20:00,
2013-01-06 18:23:00,33.3,27.0,30.14,North,349,4.0,7.0,78,0.00,,,0.06,weatherlink.com 1.10,2013-01-06 23:23:00,
2013-01-06 18:25:00,33.3,27.5,30.14,NNW,338,3.0,6.0,79,0.00,,---,0.06,VWS V14.01,2013-01-06 23:25:00,
2013-01-06 18:30:00,33.3,27.5,30.15,NW,315,2.0,6.0,79,0.00,,---,0.06,VWS V14.01,2013-01-06 23:30:00,
2013-01-06 18:35:00,33.3,27.5,30.15,NW,315,1.0,5.0,79,0.00,,---,0.06,VWS V14.01,2013-01-06 23:35:00,
2013-01-06 18:38:00,33.3,27.0,30.15,NNW,339,3.0,5.0,79,0.00,,,0.06,weatherlink.com 1.10,2013-01-06 23:38:00,
2013-01-06 18:40:00,33.3,27.5,30.15,NW,315,2.0,5.0,79,0.00,,---,0.06,VWS V14.01,2013-01-06 23:40:00,
2013-01-06 18:45:00,33.3,27.8,30.15,NW,315,1.0,5.0,80,0.00,,---,0.06,VWS V14.01,2013-01-06 23:45:00,
2013-01-06 18:50:00,33.2,27.7,30.15,WNW,292,0.0,1.0,80,0.00,,---,0.06,VWS V14.01,2013-01-06 23:50:00,
2013-01-06 18:53:00,33.2,28.0,30.16,WNW,296,2.0,3.0,80,0.00,,,0.06,weatherlink.com 1.10,2013-01-06 23:53:00,
2013-01-06 18:55:00,33.2,28.0,30.16,WNW,292,1.0,3.0,81,0.00,,---,0.06,VWS V14.01,2013-01-06 23:55:00,
2013-01-06 19:00:00,33.1,28.5,30.16,NW,315,1.0,6.0,83,0.00,,---,0.06,VWS V14.01,2013-01-07 00:00:00,
2013-01-06 19:05:00,33.0,28.7,30.16,NW,315,2.0,5.0,84,0.00,,---,0.06,VWS V14.01,2013-01-07 00:05:00,
2013-01-06 19:08:00,32.9,29.0,30.16,WSW,256,1.0,6.0,84,0.00,,,0.06,weatherlink.com 1.10,2013-01-07 00:08:00,
2013-01-06 19:10:00,32.9,28.9,30.17,North,0,1.0,4.0,85,0.00,,---,0.06,VWS V14.01,2013-01-07 00:10:00,
2013-01-06 19:15:00,32.8,28.8,30.17,WNW,292,0.0,2.0,85,0.00,,---,0.06,VWS V14.01,2013-01-07 00:15:00,
2013-01-06 19:20:00,32.7,28.7,30.17,WNW,292,2.0,6.0,85,0.00,,---,0.06,VWS V14.01,2013-01-07 00:20:00,
2013-01-06 19:23:00,32.7,29.0,30.18,NNW,330,3.0,7.0,85,0.00,,,0.06,weatherlink.com 1.10,2013-01-07 00:23:00,
2013-01-06 19:25:00,32.7,29.0,30.18,West,270,2.0,6.0,86,0.00,,---,0.06,VWS V14.01,2013-01-07 00:25:00,
2013-01-06 19:30:00,32.6,28.9,30.18,NW,315,1.0,3.0,86,0.00,,---,0.06,VWS V14.01,2013-01-07 00:30:00,
2013-01-06 19:35:00,32.5,28.8,30.18,West,270,1.0,4.0,86,0.00,,---,0.06,VWS V14.01,2013-01-07 00:35:00,
2013-01-06 19:38:00,32.4,29.0,30.18,NW,304,2.0,7.0,86,0.00,,,0.06,weatherlink.com 1.10,2013-01-07 00:38:00,
2013-01-06 19:40:00,32.5,28.8,30.18,NNW,338,2.0,7.0,86,0.00,,---,0.06,VWS V14.01,2013-01-07 00:40:00,
2013-01-06 19:45:00,32.4,28.4,30.19,NW,315,3.0,7.0,85,0.00,,---,0.06,VWS V14.01,2013-01-07 00:45:00,
2013-01-06 19:50:00,32.4,28.4,30.20,WNW,292,2.0,7.0,85,0.00,,---,0.06,VWS V14.01,2013-01-07 00:50:00,
2013-01-06 19:53:00,32.4,28.0,30.20,WSW,239,0.0,7.0,85,0.00,,,0.06,weatherlink.com 1.10,2013-01-07 00:53:00,
2013-01-06 19:55:00,32.4,28.4,30.20,NW,315,2.0,5.0,85,0.00,,---,0.06,VWS V14.01,2013-01-07 00:55:00,
2013-01-06 20:00:00,32.3,28.3,30.20,WNW,292,1.0,5.0,85,0.00,,---,0.06,VWS V14.01,2013-01-07 01:00:00,
2013-01-06 20:05:00,31.6,27.6,30.21,West,278,1.0,5.0,85,0.00,,---,0.06,VWS V14.01,2013-01-07 01:05:00,
2013-01-06 20:07:00,32.3,28.3,30.20,SSW,200,1.0,13.0,85,0.00,,---,0.06,VWS V14.01,2013-01-07 01:07:00,
2013-01-06 20:10:00,31.6,27.6,30.22,WNW,301,2.0,7.0,85,0.00,,---,0.06,VWS V14.01,2013-01-07 01:10:00,
2013-01-06 20:12:00,32.2,28.2,30.21,WNW,294,4.0,4.0,85,0.00,,---,0.06,VWS V14.01,2013-01-07 01:12:00,
2013-01-06 20:15:00,31.6,27.6,30.22,NNW,336,0.0,3.0,85,0.00,,---,0.06,VWS V14.01,2013-01-07 01:15:00,
2013-01-06 20:17:00,32.2,28.2,30.21,NW,308,3.0,8.0,85,0.00,,---,0.06,VWS V14.01,2013-01-07 01:17:00,
2013-01-06 20:20:00,31.5,27.5,30.22,West,276,0.0,2.0,85,0.00,,---,0.06,VWS V14.01,2013-01-07 01:20:00,
2013-01-06 20:22:00,32.1,28.1,30.21,WSW,245,0.0,0.0,85,0.00,,---,0.06,VWS V14.01,2013-01-07 01:22:00,
2013-01-06 20:25:00,31.5,27.5,30.22,WSW,243,0.0,2.0,85,0.00,,---,0.06,VWS V14.01,2013-01-07 01:25:00,
2013-01-06 20:27:00,32.1,28.1,30.21,WSW,255,3.0,3.0,85,0.00,,---,0.06,VWS V14.01,2013-01-07 01:27:00,
2013-01-06 20:30:00,31.4,27.4,30.23,WSW,250,2.0,3.0,85,0.00,,---,0.06,VWS V14.01,2013-01-07 01:30:00,
2013-01-06 20:32:00,32.0,28.0,30.20,WNW,290,0.0,0.0,85,0.00,,---,0.06,VWS V14.01,2013-01-07 01:32:00,
2013-01-06 20:35:00,31.4,27.4,30.23,WNW,295,0.0,5.0,85,0.00,,---,0.06,VWS V14.01,2013-01-07 01:35:00,
2013-01-06 20:37:00,31.9,27.9,30.21,WNW,300,2.0,4.0,85,0.00,,---,0.06,VWS V14.01,2013-01-07 01:37:00,
2013-01-06 20:40:00,31.4,27.4,30.23,WNW,285,3.0,4.0,85,0.00,,---,0.06,VWS V14.01,2013-01-07 01:40:00,
2013-01-06 20:42:00,31.9,27.9,30.21,NW,323,1.0,1.0,85,0.00,,---,0.06,VWS V14.01,2013-01-07 01:42:00,
2013-01-06 20:45:00,31.4,27.4,30.23,West,264,0.0,3.0,85,0.00,,---,0.06,VWS V14.01,2013-01-07 01:45:00,
2013-01-06 20:47:00,31.8,27.8,30.21,WSW,242,2.0,2.0,85,0.00,,---,0.06,VWS V14.01,2013-01-07 01:47:00,
2013-01-06 20:50:00,31.3,27.3,30.24,NW,305,0.0,3.0,85,0.00,,---,0.06,VWS V14.01,2013-01-07 01:50:00,
2013-01-06 20:52:00,31.8,27.8,30.21,West,276,1.0,3.0,85,0.00,,---,0.06,VWS V14.01,2013-01-07 01:52:00,
2013-01-06 20:55:00,31.3,27.3,30.24,SW,222,1.0,7.0,85,0.00,,---,0.06,VWS V14.01,2013-01-07 01:55:00,
2013-01-06 20:57:00,31.7,27.7,30.21,SW,221,1.0,4.0,85,0.00,,---,0.06,VWS V14.01,2013-01-07 01:57:00,
2013-01-06 21:00:00,31.3,27.0,30.24,WSW,255,0.0,4.0,84,0.00,,---,0.06,VWS V14.01,2013-01-07 02:00:00,
2013-01-06 21:02:00,31.7,27.7,30.21,SW,233,0.0,1.0,85,0.00,,---,0.06,VWS V14.01,2013-01-07 02:02:00,
2013-01-06 21:05:00,31.3,27.0,30.24,WSW,243,0.0,4.0,84,0.00,,---,0.06,VWS V14.01,2013-01-07 02:05:00,
2013-01-06 21:07:00,31.6,27.6,30.21,West,259,0.0,2.0,85,0.00,,---,0.06,VWS V14.01,2013-01-07 02:07:00,
2013-01-06 21:10:00,31.3,27.0,30.24,SW,233,3.0,4.0,84,0.00,,---,0.06,VWS V14.01,2013-01-07 02:10:00,
2013-01-06 21:12:00,31.6,27.6,30.22,WNW,297,1.0,3.0,85,0.00,,---,0.06,VWS V14.01,2013-01-07 02:12:00,
2013-01-06 21:15:00,31.3,27.0,30.24,West,269,0.0,4.0,84,0.00,,---,0.06,VWS V14.01,2013-01-07 02:15:00,
2013-01-06 21:17:00,31.6,27.6,30.22,NW,323,1.0,1.0,85,0.00,,---,0.06,VWS V14.01,2013-01-07 02:17:00,
2013-01-06 21:20:00,31.2,26.9,30.24,WNW,284,0.0,2.0,84,0.00,,---,0.06,VWS V14.01,2013-01-07 02:20:00,
2013-01-06 21:22:00,31.5,27.5,30.22,West,271,2.0,2.0,85,0.00,,---,0.06,VWS V14.01,2013-01-07 02:22:00,
2013-01-06 21:25:00,31.2,26.9,30.25,WSW,252,0.0,3.0,84,0.00,,---,0.06,VWS V14.01,2013-01-07 02:25:00,
2013-01-06 21:27:00,31.5,27.5,30.22,NW,316,2.0,3.0,85,0.00,,---,0.06,VWS V14.01,2013-01-07 02:27:00,
2013-01-06 21:30:00,31.2,26.9,30.25,West,259,0.0,2.0,84,0.00,,---,0.06,VWS V14.01,2013-01-07 02:30:00,
2013-01-06 21:32:00,31.4,27.4,30.23,West,271,3.0,5.0,85,0.00,,---,0.06,VWS V14.01,2013-01-07 02:32:00,
2013-01-06 21:35:00,31.2,26.6,30.25,North,356,2.0,3.0,83,0.00,,---,0.06,VWS V14.01,2013-01-07 02:35:00,
2013-01-06 21:37:00,31.4,27.4,30.23,SW,222,0.0,1.0,85,0.00,,---,0.06,VWS V14.01,2013-01-07 02:37:00,
2013-01-06 21:40:00,31.2,26.6,30.25,SW,226,0.0,4.0,83,0.00,,---,0.06,VWS V14.01,2013-01-07 02:40:00,
2013-01-06 21:42:00,31.4,27.4,30.23,WSW,242,0.0,3.0,85,0.00,,---,0.06,VWS V14.01,2013-01-07 02:42:00,
2013-01-06 21:45:00,31.1,26.5,30.25,SW,225,0.0,2.0,83,0.00,,---,0.06,VWS V14.01,2013-01-07 02:45:00,
2013-01-06 21:47:00,31.4,27.4,30.23,WSW,240,0.0,0.0,85,0.00,,---,0.06,VWS V14.01,2013-01-07 02:47:00,
2013-01-06 21:50:00,31.1,26.5,30.25,WNW,287,0.0,1.0,83,0.00,,---,0.06,VWS V14.01,2013-01-07 02:50:00,
2013-01-06 21:52:00,31.3,27.3,30.24,WNW,285,2.0,2.0,85,0.00,,---,0.06,VWS V14.01,2013-01-07 02:52:00,
2013-01-06 21:55:00,31.0,26.5,30.25,SW,219,0.0,0.0,83,0.00,,---,0.06,VWS V14.01,2013-01-07 02:55:00,
2013-01-06 21:57:00,31.3,27.3,30.24,SW,222,1.0,1.0,85,0.00,,---,0.06,VWS V14.01,2013-01-07 02:57:00,
2013-01-06 22:00:00,31.0,26.5,30.25,West,270,0.0,2.0,83,0.00,,---,0.06,VWS V14.01,2013-01-07 03:00:00,
2013-01-06 22:02:00,31.3,27.0,30.24,NW,314,2.0,2.0,84,0.00,,---,0.06,VWS V14.01,2013-01-07 03:02:00,
2013-01-06 22:05:00,30.9,26.4,30.25,WSW,248,0.0,1.0,83,0.00,,---,0.06,VWS V14.01,2013-01-07 03:05:00,
2013-01-06 22:07:00,31.3,27.0,30.24,WNW,290,1.0,1.0,84,0.00,,---,0.06,VWS V14.01,2013-01-07 03:07:00,
2013-01-06 22:10:00,30.9,26.4,30.25,SW,225,0.0,3.0,83,0.00,,---,0.06,VWS V14.01,2013-01-07 03:10:00,
2013-01-06 22:12:00,31.3,27.0,30.24,NW,315,4.0,4.0,84,0.00,,---,0.06,VWS V14.01,2013-01-07 03:12:00,
2013-01-06 22:15:00,30.8,26.5,30.25,SW,217,0.0,1.0,84,0.00,,---,0.06,VWS V14.01,2013-01-07 03:15:00,
2013-01-06 22:17:00,31.3,27.0,30.24,WSW,240,0.0,0.0,84,0.00,,---,0.06,VWS V14.01,2013-01-07 03:17:00,
2013-01-06 22:20:00,30.8,26.5,30.25,SSE,166,0.0,3.0,84,0.00,,---,0.06,VWS V14.01,2013-01-07 03:20:00,
2013-01-06 22:22:00,31.2,26.9,30.25,WNW,301,2.0,2.0,84,0.00,,---,0.06,VWS V14.01,2013-01-07 03:22:00,
2013-01-06 22:25:00,30.8,26.3,30.25,SW,226,0.0,1.0,83,0.00,,---,0.06,VWS V14.01,2013-01-07 03:25:00,
2013-01-06 22:27:00,31.2,26.9,30.25,WSW,251,0.0,0.0,84,0.00,,---,0.06,VWS V14.01,2013-01-07 03:27:00,
2013-01-06 22:30:00,30.8,26.5,30.26,SW,231,0.0,1.0,84,0.00,,---,0.06,VWS V14.01,2013-01-07 03:30:00,
2013-01-06 22:32:00,31.2,26.9,30.25,West,259,0.0,0.0,84,0.00,,---,0.06,VWS V14.01,2013-01-07 03:32:00,
2013-01-06 22:35:00,30.7,26.5,30.26,SW,222,0.0,1.0,84,0.00,,---,0.06,VWS V14.01,2013-01-07 03:35:00,
2013-01-06 22:37:00,31.2,26.6,30.25,NNW,328,0.0,2.0,83,0.00,,---,0.06,VWS V14.01,2013-01-07 03:37:00,
2013-01-06 22:40:00,30.6,26.1,30.26,SW,224,1.0,2.0,83,0.00,,---,0.06,VWS V14.01,2013-01-07 03:40:00,
2013-01-06 22:42:00,31.2,26.6,30.25,West,263,2.0,2.0,83,0.00,,---,0.06,VWS V14.01,2013-01-07 03:42:00,
2013-01-06 22:45:00,30.6,26.1,30.26,WNW,284,0.0,2.0,83,0.00,,---,0.06,VWS V14.01,2013-01-07 03:45:00,
2013-01-06 22:47:00,31.1,26.5,30.25,WSW,248,1.0,1.0,83,0.00,,---,0.06,VWS V14.01,2013-01-07 03:47:00,
2013-01-06 22:50:00,30.5,26.0,30.26,SW,229,0.0,0.0,83,0.00,,---,0.06,VWS V14.01,2013-01-07 03:50:00,
2013-01-06 22:52:00,31.1,26.5,30.25,WNW,286,0.0,0.0,83,0.00,,---,0.06,VWS V14.01,2013-01-07 03:52:00,
2013-01-06 22:55:00,30.5,26.0,30.26,SW,229,0.0,0.0,83,0.00,,---,0.06,VWS V14.01,2013-01-07 03:55:00,
2013-01-06 22:57:00,31.0,26.7,30.25,SW,231,1.0,2.0,84,0.00,,---,0.06,VWS V14.01,2013-01-07 03:57:00,
2013-01-06 23:00:00,30.4,25.9,30.27,WSW,248,0.0,1.0,83,0.00,,---,0.06,VWS V14.01,2013-01-07 04:00:00,
2013-01-06 23:02:00,31.0,26.5,30.25,WSW,249,0.0,1.0,83,0.00,,---,0.06,VWS V14.01,2013-01-07 04:02:00,
2013-01-06 23:05:00,30.4,25.9,30.27,WSW,239,0.0,1.0,83,0.00,,---,0.00,VWS V14.01,2013-01-07 04:05:00,
2013-01-06 23:07:00,30.9,26.4,30.25,SSW,213,1.0,1.0,83,0.00,,---,0.06,VWS V14.01,2013-01-07 04:07:00,
2013-01-06 23:10:00,30.3,25.8,30.27,SW,214,1.0,2.0,83,0.00,,---,0.00,VWS V14.01,2013-01-07 04:10:00,
2013-01-06 23:12:00,30.9,26.4,30.25,SW,225,0.0,0.0,83,0.00,,---,0.06,VWS V14.01,2013-01-07 04:12:00,
2013-01-06 23:15:00,30.2,25.7,30.27,WSW,248,0.0,1.0,83,0.00,,---,0.00,VWS V14.01,2013-01-07 04:15:00,
2013-01-06 23:17:00,30.8,26.5,30.25,SW,217,0.0,0.0,84,0.00,,---,0.06,VWS V14.01,2013-01-07 04:17:00,
2013-01-06 23:20:00,30.2,25.7,30.27,WSW,238,1.0,2.0,83,0.00,,---,0.00,VWS V14.01,2013-01-07 04:20:00,
2013-01-06 23:22:00,30.8,26.3,30.25,SSE,167,0.0,0.0,83,0.00,,---,0.06,VWS V14.01,2013-01-07 04:22:00,
2013-01-06 23:25:00,30.1,25.3,30.27,SW,214,0.0,1.0,82,0.00,,---,0.00,VWS V14.01,2013-01-07 04:25:00,
2013-01-06 23:27:00,30.8,26.3,30.26,SW,226,0.0,0.0,83,0.00,,---,0.06,VWS V14.01,2013-01-07 04:27:00,
2013-01-06 23:30:00,30.0,25.5,30.27,SSW,210,0.0,2.0,83,0.00,,---,0.00,VWS V14.01,2013-01-07 04:30:00,
2013-01-06 23:32:00,30.8,26.5,30.26,SW,231,0.0,0.0,84,0.00,,---,0.06,VWS V14.01,2013-01-07 04:32:00,
2013-01-06 23:35:00,30.0,25.2,30.27,SW,222,0.0,2.0,82,0.00,,---,0.00,VWS V14.01,2013-01-07 04:35:00,
2013-01-06 23:37:00,30.7,26.5,30.26,SW,222,0.0,1.0,84,0.00,,---,0.06,VWS V14.01,2013-01-07 04:37:00,
2013-01-06 23:40:00,29.9,25.1,30.27,SSW,212,1.0,2.0,82,0.00,,---,0.00,VWS V14.01,2013-01-07 04:40:00,
2013-01-06 23:42:00,30.6,26.1,30.26,SW,228,1.0,2.0,83,0.00,,---,0.06,VWS V14.01,2013-01-07 04:42:00,
2013-01-06 23:45:00,29.8,25.0,30.28,WSW,249,0.0,2.0,82,0.00,,---,0.00,VWS V14.01,2013-01-07 04:45:00,
2013-01-06 23:47:00,30.6,26.1,30.26,WNW,284,0.0,0.0,83,0.00,,---,0.06,VWS V14.01,2013-01-07 04:47:00,
2013-01-06 23:50:00,29.7,25.2,30.28,SW,231,0.0,1.0,83,0.00,,---,0.00,VWS V14.01,2013-01-07 04:50:00,
2013-01-06 23:52:00,30.5,26.0,30.26,SW,228,0.0,0.0,83,0.00,,---,0.06,VWS V14.01,2013-01-07 04:52:00,
2013-01-06 23:55:00,29.6,24.8,30.28,SW,229,0.0,1.0,82,0.00,,---,0.00,VWS V14.01,2013-01-07 04:55:00,
2013-01-06 23:57:00,30.5,26.0,30.26,SW,228,0.0,0.0,83,0.00,,---,0.06,VWS V14.01,2013-01-07 04:57:00,